EW5962 Weather Reports


Display with metric or nautical units.
time (UTC)temp
F
wind
direction
speed
MPH
gust
MPH
rain 1hr
in
rain 24hr
in
rain mn
in
humidity
%
barometer
mb
20230203073021 42 169 0.0 0.0 0.00 0.32 0.00 99 1015.8
20230203072706 43 169 0.0 0.0 0.00 0.32 0.00 99 1015.9
20230203072206 43 169 0.0 0.0 0.00 0.32 0.00 99 1015.7
20230203071705 43 169 0.0 0.0 0.00 0.32 0.00 98 1015.7
20230203071516 43 169 0.0 0.0 0.00 0.32 0.00 98 1015.7
20230203070706 43 169 0.0 0.0 0.00 0.32 0.00 99 1015.8
20230203070205 43 169 0.0 0.0 0.00 0.32 0.00 99 1015.8
20230203070006 43 169 0.0 0.0 0.00 0.32 0.00 99 1015.8
20230203065706 43 169 0.0 0.0 0.00 0.33 0.00 99 1016.1
20230203065205 43 169 0.0 0.0 0.00 0.33 0.00 99 1015.9
20230203064706 44 169 0.0 0.0 0.00 0.33 0.00 99 1015.8
20230203064519 43 169 0.0 0.0 0.00 0.33 0.00 99 1015.8
20230203064206 44 169 0.0 0.0 0.00 0.33 0.00 99 1015.9
20230203063205 44 169 0.0 0.0 0.00 0.33 0.00 99 1016.1
20230203063021 43 169 0.0 0.0 0.00 0.33 0.00 99 1016.1
20230203062706 44 169 0.0 0.0 0.00 0.33 0.00 99 1016.0
20230203062206 44 169 0.0 0.0 0.00 0.33 0.00 99 1015.9
20230203061706 44 169 0.0 0.0 0.00 0.33 0.00 99 1016.2
20230203061523 43 169 0.0 1.0 0.00 0.33 0.00 99 1016.2
20230203061205 44 169 0.0 0.0 0.00 0.33 0.00 99 1016.2
20230203060706 44 169 0.0 0.0 0.00 0.33 0.00 99 1016.3
20230203060206 44 169 0.0 0.0 0.00 0.33 0.00 99 1016.3
20230203060018 43 169 0.0 0.0 0.00 0.33 0.00 99 1016.3
20230203055706 44 169 0.0 0.0 0.00 0.33 0.00 99 1016.3
20230203055206 44 169 0.0 0.0 0.00 0.33 0.00 99 1016.5
20230203054706 44 169 0.0 0.0 0.00 0.33 0.00 99 1016.5
20230203054515 43 169 0.0 1.0 0.00 0.33 0.00 99 1016.6
20230203054205 44 169 0.0 1.0 0.00 0.33 0.00 99 1016.4
20230203053706 44 169 0.0 0.0 0.00 0.33 0.00 99 1016.4
20230203053206 44 169 0.0 1.0 0.00 0.33 0.00 99 1016.5
20230203053027 43 169 0.0 2.0 0.00 0.33 0.00 99 1016.5
20230203052706 44 168 0.0 3.0 0.00 0.33 0.00 99 1016.4
20230203052206 44 168 0.0 0.0 0.00 0.33 0.00 99 1016.5
20230203051706 44 168 0.0 0.0 0.00 0.33 0.00 99 1016.3
20230203051524 43 168 0.0 1.0 0.00 0.33 0.00 99 1016.3
20230203051206 44 168 0.0 0.0 0.00 0.33 0.00 99 1016.3
20230203050708 44 168 0.0 1.0 0.00 0.33 0.00 99 1016.2
20230203050205 44 168 0.0 0.0 0.00 0.33 0.00 99 1016.2
20230203050024 43 168 0.0 0.0 0.00 0.33 0.00 99 1016.2
20230203045706 44 168 0.0 0.0 0.00 0.33 0.33 99 1016.2
20230203045205 44 168 0.0 0.0 0.00 0.33 0.33 99 1016.3
20230203044707 44 168 0.0 0.0 0.00 0.33 0.33 99 1016.4
20230203044520 43 168 0.0 0.0 0.00 0.33 0.33 99 1016.4
20230203044206 44 168 0.0 0.0 0.00 0.33 0.33 99 1016.4
20230203043707 44 168 0.0 0.0 0.00 0.33 0.33 99 1016.4
20230203043208 44 169 1.0 5.0 0.00 0.33 0.33 99 1016.5
20230203043021 43 190 0.0 3.0 0.00 0.33 0.33 99 1016.5
20230203042706 44 188 1.0 3.0 0.00 0.33 0.33 99 1016.7
20230203042206 44 188 1.0 3.0 0.00 0.33 0.33 99 1016.8
20230203041707 44 188 0.0 1.0 0.00 0.33 0.33 99 1016.8
20230203041520 43 187 0.0 2.0 0.00 0.33 0.33 99 1016.9
20230203041205 44 187 1.0 3.0 0.00 0.33 0.33 99 1016.5
20230203040705 44 187 1.0 3.0 0.00 0.33 0.33 99 1016.6
20230203040020 43 187 0.0 2.0 0.00 0.33 0.33 99 1016.6
20230203035705 44 187 2.0 3.0 0.00 0.33 0.33 99 1016.5
20230203034708 44 187 1.0 1.0 0.00 0.33 0.33 99 1017.1
20230203034519 43 187 0.0 2.0 0.00 0.33 0.33 99 1017.1
20230203034206 44 187 0.0 0.0 0.00 0.33 0.33 99 1016.9
20230203033705 43 187 0.0 0.0 0.00 0.33 0.33 99 1016.7
20230203033210 43 187 0.0 0.0 0.00 0.33 0.33 98 1016.7
20230203033024 43 187 0.0 3.0 0.00 0.33 0.33 98 1016.7
20230203032706 43 187 0.0 1.0 0.00 0.33 0.33 98 1016.7
20230203032204 43 187 1.0 5.0 0.00 0.33 0.33 98 1017.1
20230203031520 43 187 0.0 2.0 0.00 0.33 0.33 98 1017.2
20230203031206 43 187 0.0 0.0 0.00 0.33 0.33 98 1017.3
20230203030205 43 187 0.0 0.0 0.00 0.33 0.33 98 1017.2
20230203030021 43 187 0.0 1.0 0.00 0.33 0.33 98 1017.2
20230203025706 43 187 0.0 1.0 0.00 0.33 0.33 98 1017.2
20230203025206 43 187 0.0 0.0 0.00 0.33 0.33 98 1017.3
20230203024706 43 187 0.0 0.0 0.00 0.33 0.33 98 1017.3
20230203024514 43 187 0.0 1.0 0.00 0.33 0.33 98 1017.3
20230203024206 43 187 0.0 0.0 0.01 0.33 0.33 98 1017.3
20230203023205 43 187 0.0 0.0 0.01 0.33 0.33 98 1017.3
20230203023021 43 187 0.0 1.0 0.01 0.33 0.33 98 1017.3
20230203022704 43 187 0.0 0.0 0.01 0.33 0.33 98 1017.0
20230203022205 43 187 0.0 0.0 0.01 0.33 0.33 98 1017.2
20230203021706 43 187 0.0 0.0 0.01 0.33 0.33 98 1017.2
20230203021503 43 187 0.0 0.0 0.01 0.33 0.33 98 1017.2
20230203021205 43 187 0.0 0.0 0.01 0.33 0.33 98 1017.1
20230203020705 43 187 0.0 0.0 0.01 0.33 0.33 98 1017.0
20230203020205 43 187 0.0 0.0 0.02 0.33 0.33 98 1017.2
20230203020027 43 187 0.0 0.0 0.02 0.33 0.33 98 1017.2
20230203015205 43 187 0.0 0.0 0.02 0.33 0.33 98 1017.1
20230203014706 43 187 0.0 0.0 0.02 0.33 0.33 98 1017.2
20230203014519 43 187 0.0 0.0 0.02 0.33 0.33 98 1017.1
20230203014206 43 187 0.0 0.0 0.01 0.32 0.32 98 1017.4
20230203013704 43 187 0.0 0.0 0.01 0.32 0.32 98 1017.5
20230203013207 43 187 0.0 0.0 0.02 0.32 0.32 98 1017.4
20230203013024 43 187 0.0 0.0 0.02 0.32 0.32 98 1017.4
20230203012706 43 187 0.0 0.0 0.02 0.32 0.32 98 1017.5
20230203012206 43 187 0.0 0.0 0.02 0.32 0.32 98 1017.5
20230203011605 43 187 0.0 0.0 0.03 0.32 0.32 98 1017.5
20230203011204 43 187 0.0 0.0 0.03 0.32 0.32 98 1017.5
20230203010706 43 187 0.0 0.0 0.03 0.32 0.32 98 1017.7
20230203010205 43 187 0.0 0.0 0.02 0.31 0.31 98 1017.7
20230203010019 43 187 0.0 0.0 0.02 0.31 0.31 98 1017.7
20230203005706 43 187 0.0 0.0 0.03 0.31 0.31 98 1017.7
20230203004705 43 187 0.0 6.0 0.04 0.31 0.31 98 1017.9
20230203004519 43 187 0.0 4.0 0.04 0.31 0.31 98 1017.8
20230203003705 43 184 2.0 3.0 0.04 0.31 0.31 98 1018.0
20230203003204 43 184 2.0 5.0 0.03 0.30 0.30 98 1018.2
20230203003007 43 184 0.0 3.0 0.03 0.30 0.30 98 1018.2
20230203002706 43 184 1.0 3.0 0.03 0.30 0.30 98 1018.2
20230203002205 43 184 0.0 0.0 0.03 0.30 0.30 98 1018.4
20230203001706 43 184 0.0 0.0 0.02 0.29 0.29 98 1018.6
20230203001508 43 184 0.0 0.0 0.02 0.28 0.28 98 1018.6
20230203000706 43 184 0.0 0.0 0.02 0.29 0.29 98 1018.5
20230203000205 43 184 0.0 0.0 0.02 0.29 0.29 98 1018.4
20230203000008 43 184 0.0 0.0 0.01 0.28 0.28 98 1018.4
20230202235705 43 184 0.0 0.0 0.01 0.28 0.28 98 1018.5
20230202235205 43 184 0.0 0.0 0.01 0.28 0.28 98 1018.6
20230202234707 43 184 0.0 3.0 0.00 0.27 0.27 98 1018.9
20230202234605 43 184 0.0 2.0 0.00 0.27 0.27 98 1018.8
20230202234206 43 183 0.0 3.0 0.00 0.27 0.27 98 1018.9
20230202233704 43 183 0.0 1.0 0.00 0.27 0.27 98 1019.0
20230202233027 42 181 0.0 3.0 0.01 0.27 0.27 98 1019.1
20230202232705 43 181 2.0 5.0 0.01 0.27 0.27 98 1018.9
20230202232204 43 181 2.0 3.0 0.01 0.27 0.27 98 1018.9
20230202231705 43 181 2.0 5.0 0.01 0.27 0.27 98 1018.6
20230202231521 42 181 1.0 3.0 0.01 0.27 0.27 98 1018.6
20230202231206 43 181 0.0 0.0 0.01 0.27 0.27 98 1018.4
20230202230705 43 181 0.0 1.0 0.01 0.27 0.27 98 1018.4
20230202230205 43 181 0.0 1.0 0.01 0.27 0.27 98 1018.2
20230202230021 42 181 0.0 1.0 0.01 0.27 0.27 98 1018.2
20230202225205 43 181 0.0 1.0 0.01 0.27 0.27 97 1017.8
20230202224518 42 181 0.0 0.0 0.01 0.27 0.27 97 1017.7
20230202224205 43 181 0.0 0.0 0.01 0.27 0.27 97 1017.6
20230202223706 43 181 0.0 1.0 0.01 0.27 0.27 97 1017.8
20230202223207 43 181 0.0 1.0 0.00 0.26 0.26 97 1018.2
20230202223019 42 181 0.0 1.0 0.00 0.26 0.26 97 1018.3
20230202222704 43 181 0.0 1.0 0.00 0.26 0.26 97 1018.3
20230202222206 43 181 0.0 0.0 0.00 0.26 0.26 97 1018.4
20230202221706 43 181 0.0 0.0 0.00 0.26 0.26 97 1018.4
20230202221518 42 181 0.0 0.0 0.00 0.26 0.26 97 1018.4
20230202221205 43 181 0.0 0.0 0.00 0.26 0.26 97 1018.5
20230202220706 43 181 0.0 0.0 0.00 0.26 0.26 97 1018.4
20230202220205 43 181 0.0 1.0 0.00 0.26 0.26 97 1018.4
20230202220023 42 181 0.0 0.0 0.00 0.26 0.26 97 1018.3
20230202215706 43 181 0.0 0.0 0.00 0.26 0.26 97 1018.3
20230202215205 43 181 0.0 0.0 0.01 0.26 0.26 97 1018.2
20230202214521 42 181 0.0 0.0 0.01 0.26 0.26 97 1018.0
20230202213706 43 181 0.0 0.0 0.02 0.26 0.26 97 1017.8
20230202213206 43 181 0.0 1.0 0.02 0.26 0.26 97 1017.8
20230202213022 42 181 0.0 2.0 0.02 0.26 0.26 97 1017.8
20230202212705 43 181 1.0 3.0 0.02 0.26 0.26 97 1017.7
20230202212206 43 181 0.0 1.0 0.03 0.26 0.26 97 1017.7
20230202211706 43 181 0.0 1.0 0.03 0.26 0.26 97 1017.4
20230202211519 42 181 0.0 1.0 0.03 0.26 0.26 97 1017.4
20230202211207 43 181 0.0 1.0 0.03 0.26 0.26 97 1017.4
20230202210705 43 181 0.0 0.0 0.03 0.26 0.26 97 1017.5
20230202210206 43 181 1.0 1.0 0.03 0.26 0.26 97 1017.6
20230202210016 42 181 0.0 2.0 0.03 0.26 0.26 97 1017.6
20230202205706 43 181 0.0 0.0 0.03 0.26 0.26 97 1017.8
20230202204706 43 181 0.0 3.0 0.02 0.25 0.25 97 1018.4
20230202204509 42 181 0.0 3.0 0.02 0.25 0.25 97 1018.5
20230202204206 43 181 1.0 3.0 0.02 0.25 0.25 97 1018.6
20230202203706 43 181 1.0 3.0 0.01 0.24 0.24 97 1018.8
20230202203206 43 181 1.0 3.0 0.01 0.24 0.24 97 1018.9
20230202203017 42 181 0.0 3.0 0.01 0.24 0.24 97 1018.9
20230202202206 43 176 0.0 1.0 0.00 0.23 0.23 96 1018.8
20230202201706 43 176 0.0 1.0 0.00 0.23 0.23 96 1018.7
20230202201512 42 176 0.0 4.0 0.00 0.23 0.23 96 1018.6
20230202201205 43 176 3.0 5.0 0.00 0.23 0.23 96 1018.7
20230202200707 43 171 2.0 5.0 0.00 0.23 0.23 96 1018.5
20230202200206 43 166 2.0 5.0 0.00 0.23 0.23 96 1018.4
20230202200009 42 166 0.0 3.0 0.00 0.23 0.23 97 1018.4
20230202195706 43 165 1.0 5.0 0.00 0.23 0.23 96 1018.6
20230202195205 42 164 0.0 0.0 0.00 0.23 0.23 96 1018.5
20230202194706 42 164 0.0 1.0 0.00 0.23 0.23 96 1018.6
20230202194630 42 164 0.0 3.0 0.00 0.23 0.23 96 1018.6
20230202194206 42 164 1.0 5.0 0.00 0.23 0.23 96 1018.8
20230202193705 42 212 3.0 6.0 0.00 0.23 0.23 96 1018.9
20230202193206 42 201 3.0 6.0 0.00 0.23 0.23 96 1019.0
20230202193020 42 200 2.0 4.0 0.00 0.23 0.23 96 1019.0
20230202192706 42 210 3.0 5.0 0.00 0.23 0.23 96 1018.9
20230202192207 42 210 2.0 5.0 0.00 0.23 0.23 96 1018.9
20230202191520 42 210 0.0 2.0 0.00 0.23 0.23 96 1019.3
20230202191206 42 210 0.0 3.0 0.00 0.23 0.23 96 1019.6
20230202190706 42 210 1.0 6.0 0.00 0.23 0.23 96 1019.9
20230202190206 42 199 1.0 3.0 0.00 0.23 0.23 96 1020.1
20230202190022 42 198 0.0 2.0 0.00 0.23 0.23 96 1020.0
20230202185706 42 198 0.0 1.0 0.00 0.23 0.23 96 1020.0
20230202185206 42 198 0.0 3.0 0.00 0.23 0.23 96 1019.8
20230202184706 42 200 2.0 3.0 0.00 0.23 0.23 96 1020.2
20230202184512 42 200 1.0 3.0 0.00 0.23 0.23 96 1020.3
20230202184206 42 336 0.0 1.0 0.00 0.23 0.23 96 1020.5
20230202183706 42 337 0.0 1.0 0.00 0.23 0.23 96 1020.3
20230202183204 42 332 0.0 1.0 0.00 0.23 0.23 96 1020.3
20230202183008 42 333 0.0 2.0 0.00 0.23 0.23 96 1020.2
20230202182704 42 55 0.0 0.0 0.00 0.23 0.23 96 1019.9
20230202182205 42 92 0.0 0.0 0.00 0.23 0.23 96 1019.8
20230202181706 42 64 0.0 0.0 0.00 0.23 0.23 96 1020.0
20230202181508 41 22 0.0 2.0 0.00 0.23 0.23 96 1020.1
20230202181205 42 22 0.0 1.0 0.00 0.23 0.23 96 1020.4
20230202180706 42 348 2.0 6.0 0.00 0.23 0.23 96 1020.6
20230202180003 41 224 0.0 3.0 0.00 0.23 0.23 96 1020.9
20230202175704 42 219 1.0 5.0 0.00 0.23 0.23 96 1020.9
20230202175206 42 193 1.0 1.0 0.00 0.23 0.23 96 1020.8
20230202174705 42 193 0.0 1.0 0.00 0.23 0.23 96 1020.7
20230202174613 41 193 0.0 0.0 0.00 0.23 0.23 96 1020.7
20230202174206 42 193 0.0 0.0 0.00 0.23 0.23 97 1020.6
20230202173706 42 193 0.0 0.0 0.00 0.23 0.23 97 1020.4
20230202173207 42 193 1.0 3.0 0.00 0.23 0.23 97 1020.7
20230202173023 41 193 0.0 2.0 0.00 0.23 0.23 97 1020.7
20230202172707 42 183 0.0 0.0 0.00 0.23 0.23 98 1020.8
20230202172206 41 183 0.0 0.0 0.00 0.23 0.23 97 1020.5
20230202171506 41 184 0.0 5.0 0.00 0.23 0.23 97 1020.5
20230202170706 41 189 5.0 6.0 0.00 0.23 0.23 97 1020.8
20230202170206 41 215 2.0 5.0 0.00 0.23 0.23 97 1021.0
20230202170018 40 215 1.0 4.0 0.00 0.23 0.23 97 1021.0
20230202165704 41 214 3.0 5.0 0.00 0.23 0.23 97 1021.3
20230202164705 41 158 3.0 5.0 0.01 0.23 0.23 97 1021.5
20230202164516 40 176 1.0 3.0 0.01 0.23 0.23 97 1021.5
20230202164204 41 172 1.0 5.0 0.02 0.23 0.23 98 1021.6
20230202163706 40 163 3.0 5.0 0.02 0.23 0.23 98 1021.6
20230202163205 40 166 1.0 6.0 0.03 0.23 0.23 98 1021.7
20230202163015 40 167 0.0 4.0 0.03 0.23 0.23 98 1021.7
20230202162707 40 161 2.0 5.0 0.04 0.23 0.23 98 1021.7
20230202162205 40 183 0.0 1.0 0.04 0.23 0.23 97 1021.7
20230202161706 40 183 1.0 6.0 0.04 0.23 0.23 98 1021.8
20230202161521 39 183 0.0 6.0 0.04 0.23 0.23 98 1021.8
20230202161206 40 186 5.0 9.0 0.04 0.23 0.23 98 1022.0
20230202160706 40 184 3.0 9.0 0.05 0.23 0.23 98 1022.1
20230202160206 40 178 7.0 8.0 0.05 0.23 0.23 98 1022.4
20230202160019 39 172 2.0 5.0 0.05 0.23 0.23 98 1022.4
20230202155706 40 174 2.0 3.0 0.05 0.23 0.23 97 1022.6
20230202155206 39 174 3.0 5.0 0.04 0.22 0.22 97 1022.7
20230202154705 39 164 1.0 3.0 0.04 0.22 0.22 97 1023.0
20230202154517 39 153 0.0 1.0 0.04 0.22 0.22 97 1023.1
20230202153706 39 149 0.0 0.0 0.04 0.21 0.21 97 1023.3
20230202153205 39 149 0.0 0.0 0.04 0.20 0.20 97 1023.5
20230202153026 39 149 0.0 0.0 0.04 0.20 0.20 97 1023.6
20230202152704 39 149 0.0 0.0 0.03 0.19 0.19 98 1023.6
20230202152207 39 149 0.0 0.0 0.03 0.19 0.19 98 1023.2
20230202151705 39 149 0.0 0.0 0.04 0.19 0.19 98 1023.3
20230202151520 39 149 0.0 1.0 0.04 0.19 0.19 98 1023.3
20230202151206 39 149 0.0 1.0 0.04 0.19 0.19 98 1023.0
20230202150206 39 150 0.0 0.0 0.04 0.18 0.18 98 1023.5
20230202150017 39 150 0.0 0.0 0.04 0.18 0.18 98 1023.5
20230202145705 39 150 0.0 0.0 0.04 0.18 0.18 98 1023.5
20230202145207 39 150 0.0 0.0 0.04 0.18 0.18 98 1023.1
20230202144706 39 150 0.0 1.0 0.04 0.18 0.18 97 1023.2
20230202144518 38 150 0.0 2.0 0.04 0.18 0.18 97 1023.1
20230202144205 39 150 0.0 3.0 0.03 0.17 0.17 97 1023.1
20230202143706 39 150 1.0 3.0 0.03 0.17 0.17 97 1022.8
20230202143206 39 144 2.0 3.0 0.02 0.16 0.16 97 1022.8
20230202143020 38 52 0.0 2.0 0.02 0.16 0.16 97 1022.9
20230202142205 39 44 0.0 1.0 0.02 0.16 0.16 97 1023.0
20230202141705 39 14 0.0 1.0 0.01 0.15 0.15 98 1022.8
20230202141522 38 0.0 0.0 0.01 0.15 0.15 98 1022.8
20230202141206 39 0 0.0 0.0 0.01 0.15 0.15 97 1022.9
20230202140706 38 0 0.0 0.0 0.01 0.15 0.15 97 1023.0
20230202140205 38 0 0.0 0.0 0.00 0.14 0.14 97 1023.5
20230202140025 38 0.0 0.0 0.00 0.14 0.14 97 1023.5
20230202135704 38 0 0.0 0.0 0.00 0.14 0.14 97 1023.7
20230202135206 38 0 0.0 0.0 0.00 0.14 0.14 97 1023.4
20230202134705 38 0 0.0 0.0 0.00 0.14 0.14 97 1022.8
20230202134521 0 0.0 0.0 0.00 0.14 0.14 1022.8
20230202134206 38 0 0.0 0.0 0.00 0.14 0.14 97 1022.7
20230202133704 38 0 0.0 0.0 0.00 0.14 0.14 97 1022.6
20230202133016 0 0.0 0.0 0.00 0.14 0.14 1023.0
20230202132706 38 0 0.0 0.0 0.00 0.14 0.14 97 1023.4
20230202131705 38 0 0.0 0.0 0.00 0.14 0.14 97 1023.2
20230202131515 0 0.0 0.0 0.00 0.14 0.14 1023.2
20230202130705 38 0 0.0 0.0 0.00 0.14 0.14 97 1023.1
20230202130206 38 0 0.0 0.0 0.00 0.14 0.14 97 1023.0
20230202130009 37 0.0 0.0 0.00 0.14 0.14 97 1023.1
20230202125706 38 0 0.0 0.0 0.00 0.14 0.14 97 1023.3
20230202125206 39 0 0.0 0.0 0.00 0.14 0.14 97 1023.1
20230202124706 39 0 0.0 0.0 0.00 0.14 0.14 97 1023.2
20230202124507 38 0.0 0.0 0.00 0.15 0.14 97 1023.2
20230202123204 39 0 0.0 0.0 0.00 0.14 0.14 97 1023.0
20230202123020 38 0.0 0.0 0.00 0.15 0.14 97 1022.9
20230202122706 39 0 0.0 0.0 0.00 0.14 0.14 97 1022.4
20230202122206 39 0 0.0 0.0 0.00 0.14 0.14 97 1022.8
20230202121706 39 0 0.0 0.0 0.00 0.14 0.14 97 1021.9
20230202121520 38 0.0 0.0 0.00 0.15 0.14 97 1021.8
20230202121205 39 0 0.0 0.0 0.00 0.15 0.14 97 1021.6
20230202120706 39 0 0.0 3.0 0.00 0.15 0.14 97 1021.5
20230202120205 39 106 3.0 3.0 0.01 0.15 0.14 97 1021.2
20230202120018 38 106 0.0 3.0 0.01 0.15 0.14 97 1021.2
20230202115706 39 106 3.0 3.0 0.01 0.15 0.14 97 1021.3
20230202115206 39 111 0.0 3.0 0.01 0.15 0.14 97 1021.5
20230202114706 39 119 0.0 0.0 0.01 0.15 0.14 97 1021.7
20230202114519 38 119 0.0 0.0 0.01 0.16 0.14 97 1021.8
20230202114205 39 119 0.0 0.0 0.02 0.15 0.14 97 1021.8
20230202113705 39 119 0.0 1.0 0.04 0.16 0.14 97 1021.8
20230202113206 39 119 0.0 0.0 0.04 0.16 0.14 97 1021.9
20230202113022 38 119 0.0 1.0 0.04 0.16 0.14 97 1021.8
20230202112206 39 119 1.0 3.0 0.05 0.16 0.14 97 1021.8
20230202111706 39 119 0.0 1.0 0.05 0.16 0.14 97 1022.0
20230202111517 38 119 0.0 2.0 0.06 0.16 0.14 97 1022.0
20230202111205 39 119 0.0 1.0 0.06 0.16 0.14 97 1022.0
20230202110705 39 122 0.0 0.0 0.07 0.16 0.14 97 1022.0
20230202110206 39 122 0.0 0.0 0.06 0.15 0.13 97 1022.4
20230202110022 38 122 0.0 1.0 0.06 0.15 0.13 97 1022.5
20230202105707 39 122 0.0 0.0 0.07 0.15 0.13 97 1022.7
20230202105205 39 122 0.0 0.0 0.07 0.15 0.13 97 1022.7
20230202104705 39 122 0.0 0.0 0.08 0.15 0.13 97 1023.0
20230202104519 38 122 0.0 0.0 0.08 0.17 0.13 97 1023.0
20230202104206 39 122 0.0 0.0 0.08 0.15 0.12 97 1023.2
20230202103706 39 122 0.0 0.0 0.06 0.13 0.10 97 1023.4
20230202103206 39 122 0.0 0.0 0.07 0.14 0.10 97 1023.5
20230202103010 38 122 0.0 2.0 0.07 0.14 0.10 97 1023.5
20230202102706 39 122 0.0 1.0 0.06 0.13 0.09 97 1023.7
20230202102206 39 122 1.0 1.0 0.06 0.13 0.09 97 1023.4
20230202101706 39 128 1.0 5.0 0.06 0.13 0.09 97 1023.0
20230202101516 38 129 1.0 3.0 0.05 0.12 0.08 97 1023.0
20230202101206 39 119 0.0 0.0 0.05 0.12 0.08 97 1023.3
20230202100706 39 119 1.0 3.0 0.04 0.11 0.07 97 1023.3
20230202100206 39 120 1.0 1.0 0.04 0.11 0.07 97 1022.9
20230202100008 39 120 0.0 3.0 0.04 0.11 0.07 97 1022.8
20230202095206 39 121 0.0 0.0 0.04 0.11 0.06 97 1022.9
20230202094704 39 121 0.0 0.0 0.03 0.10 0.05 97 1022.7
20230202094603 39 121 0.0 1.0 0.03 0.12 0.05 97 1022.7
20230202094205 39 121 0.0 0.0 0.02 0.09 0.04 97 1022.7
20230202093706 39 121 1.0 1.0 0.02 0.09 0.04 97 1022.6
20230202093033 39 121 0.0 2.0 0.01 0.10 0.03 97 1022.4
20230202091706 39 121 0.0 0.0 0.01 0.09 0.03 97 1022.2
20230202091519 39 121 0.0 1.0 0.01 0.10 0.03 97 1022.2
20230202090206 39 121 0.0 0.0 0.02 0.10 0.03 96 1022.2
20230202090022 39 121 0.0 0.0 0.02 0.10 0.03 96 1022.2
20230202085206 39 121 0.0 1.0 0.01 0.09 0.02 96 1022.1
20230202084705 39 121 0.0 3.0 0.01 0.09 0.02 96 1022.1
20230202084520 39 121 0.0 1.0 0.01 0.11 0.02 96 1022.1
20230202084206 39 121 0.0 1.0 0.01 0.09 0.02 96 1022.3
20230202083705 39 121 0.0 1.0 0.01 0.09 0.02 96 1022.6
20230202083205 39 121 0.0 0.0 0.01 0.10 0.02 96 1022.4
20230202083021 39 121 0.0 0.0 0.01 0.11 0.02 96 1022.4
20230202082705 39 121 0.0 0.0 0.01 0.10 0.02 96 1022.4
20230202082204 39 121 0.0 0.0 0.01 0.10 0.02 96 1022.6
20230202081707 39 121 0.0 0.0 0.01 0.10 0.02 96 1022.7
20230202081520 39 121 0.0 0.0 0.01 0.11 0.02 96 1022.7
20230202081205 39 121 0.0 0.0 0.01 0.10 0.02 96 1022.8
20230202080704 39 121 0.0 0.0 0.01 0.10 0.02 96 1022.8
20230202080206 39 121 0.0 0.0 0.00 0.10 0.01 96 1022.9
20230202080014 39 121 0.0 2.0 0.00 0.10 0.01 96 1022.9
20230202075704 39 121 1.0 3.0 0.01 0.10 0.01 96 1022.9
20230202075204 39 121 0.0 1.0 0.01 0.10 0.01 96 1023.0
20230202074705 39 121 1.0 1.0 0.01 0.11 0.01 96 1023.6
20230202074507 39 121 0.0 2.0 0.01 0.13 0.01 96 1023.7
20230202074206 39 121 1.0 3.0 0.01 0.12 0.01 96 1023.7
20230202073706 39 121 1.0 1.0 0.01 0.12 0.01 96 1023.4
20230202073205 40 121 0.0 0.0 0.01 0.12 0.01 96 1023.3